STARLINK-11415, 62592

Orbit data source: Space-Track

STARLINK-11415, 62592 is a payload satellite owned by SpaceX/Seattle (US) in LEO that was launched on Mon, 13 Jan 2025 UTC via an FALCON 9 launch vehicle from the Air Force Eastern Test Range (AFETR). Payload-class satellites include a variety of spacecraft equipped with specific instruments for various scientific and technological missions. These include communications satellites like Starlink; space stations such as the ISS; scientific satellites like the Hubble; Earth observation satellites from companies like Planet Labs, Umbra, and HawkEye 360; GPS; miniature CubeSats for education and research; and military/defense satellites.

Loading next visibility...
Identifier
62592, 2025-008F
Orbit
LEO
Country
Flag of USUS
Related business
Manufacturer
SpaceX/Seattle
Mission
Operational Commercial Communications
Bus & Motor
STARLINK V2MD, Unknown motor
Mass
960 kg wet, ~910 kg dry
Launch date (UTC)
2025-01-13 (2 years ago)
Launch vehicle
FALCON 9
Launch site
Air Force Eastern Test Range (AFETR)
Object type
Payload
Rocket body
Debris
Shape & HBR
Box + 2 Pan, 18.1 m
Radar Cross Section
36.964 m², Large (>1 m²)

Expand to show TLE details & history
Last TLE update: 15 hours ago

TLE from 15 hours ago
0 STARLINK-11415
1 62592U 25008F   26236.25302545  .00204536  00000-0  15513-2 0  9991
2 62592  43.0006 196.5006 0004069 246.4075 113.6365 15.70946579 93575
Epoch: 2026-08-24T06:04Z
TLE epoch observation values (Epoch: 2026-08-24T06:04:21.398Z)
Latitude
-0.00007°
Longitude
132.87398°
Altitude
357.061 km
Speed
7.696 km/s
True Right ascension
13h 06m 00s
True Declination
0° 00' 00"
Sunlit
Object was in daylight at epoch
Visualization orbit readout
Latitude
Unknown
Longitude
Unknown
Altitude
Unknown
Speed
Unknown
Apparent Right ascension
Unknown
Apparent Declination
Unknown
Sunlit
N/A
Visualization observer readout
Local Sidereal Time
12:11:07
Azimuth
Unknown
Elevation
Unknown
Doppler factor
Unknown
Orbital elements
Apogee altitude
360.913 km
Perigee altitude
355.431 km
Semi-major axis
6,736.309 km
Eccentricity
0.00041
Inclination
43.0006°
RAAN
196.5006°
Arg. of periapsis
246.4075°
True anomaly
113.67921°
Mean anomaly
113.6365°
Eccentric anomaly
113.65785°
Mean motion
3.92564 °/min
Orbital period
91.7 mins
BSTAR
0.0015513
Loading maneuver chart data...
Computing Atmospheric mass density...
Loading historical data...
Loading historical data...
Loading historical data...
Loading historical data...
Loading historical data...
Loading historical data...
Loading historical data...

Documentation

Showing up to 5 results
|